Location: Newark
(51.5114°N, 0.0848°W)
Time: 00:17:19
(UTC+00:00)

OTV 5 (USA 277) - Visible Passes

Search period start: 17 February 2019 00:00
Search period end: 27 February 2019 00:00
Orbit: 342 x 346 km, 54.5° (Epoch: 09 February)

Date Brightness Start Highest point End Pass type
(mag) Time Alt. Az. Time Alt. Az. Time Alt. Az.
24 Feb ? 19:00:47 10° S 19:01:55 15° SSE 19:01:55 15° SSE visible
25 Feb ? 19:23:26 10° SW 19:25:18 29° S 19:25:18 29° S visible
26 Feb ? 18:13:17 10° S 18:15:11 16° SE 18:17:04 10° E visible
26 Feb ? 19:46:49 10° WSW 19:48:34 33° WSW 19:48:34 33° WSW visible
